Location: Baix
(44.7118°N, 4.7648°E)
Time: 03:14:50
(UTC+00:00)

ERS-2 - Pass Details

Date: 07 August 2020
Orbit: 493 x 498 km, 98.6° (Epoch: 27 September)

Event Time Altitude Azimuth Distance (km) Brightness Sun altitude
Rises 03:28:28 0° 170° (S) 2,563 5.5 -10.9°
Reaches altitude 10° 03:30:32 10° 173° (S) 1,687 4.5 -10.6°
Maximum altitude 03:34:09 68° 257° (WSW) 537 2.0 -10.1°
Drops below altitude 10° 03:37:48 10° 341° (NNW) 1,705 5.0 -9.6°
Sets 03:39:54 0° 344° (NNW) 2,594 6.0 -9.3°
